Location: Unspecified
(40.7945°N, 0.0000°E)
Time: 05:56:14
(UTC+00:00)

Tiros 1 despin weight - Pass Details

Date: 25 January 2021
Orbit: 593 x 642 km, 48.2° (Epoch: 06 March)

Event Time Altitude Azimuth Distance (km) Brightness Sun altitude
Rises 20:34:13 0° 291° (WNW) 2,840 ? -38.7°
Reaches altitude 10° 20:36:49 10° 278° (W) 1,929 ? -39.2°
Enters shadow 20:36:55 11° 277° (W) 1,895 ? -39.2°
